START_TIME,STEP,MOV.,M15,t_acc.,M20,t_acc.
1979-03-02 18:00:33.380 ,0,1,0.,24.0,0.,24.0
1979-03-02 18:00:57.380 ,0,1,0.,24.0,0.,24.0
1979-03-02 18:01:21.380 ,1,1,0.,24.0,0.,24.0
1979-03-02 18:01:45.380 ,2,1,0.,24.0,0.,24.0
1979-03-02 18:02:09.380 ,3,1,0.,24.0,0.,24.0
1979-03-02 18:02:33.380 ,4,1,0.,24.0,0.,24.0
1979-03-02 18:02:57.380 ,5,1,0.,24.0,0.,24.0
1979-03-02 18:03:21.380 ,6,1,0.,24.0,0.,24.0
1979-03-02 18:03:45.380 ,7,1,0.,24.0,0.,24.0
1979-03-02 18:04:09.380 ,7,1,0.,24.0,0.,24.0
1979-03-02 18:04:33.380 ,6,1,0.,24.0,0.,24.0
1979-03-02 18:04:57.380 ,5,1,0.,24.0,0.,24.0
1979-03-02 18:05:21.380 ,4,1,0.,24.0,0.,24.0
1979-03-02 18:05:45.380 ,3,1,0.,24.0,0.,24.0
1979-03-02 18:06:09.380 ,2,1,0.,24.0,0.,24.0
1979-03-02 18:06:33.380 ,1,1,0.,24.0,0.,24.0
1979-03-02 18:06:57.380 ,0,1,0.,24.0,0.,24.0
1979-03-02 18:07:21.380 ,0,1,0.,24.0,0.,24.0
1979-03-02 18:07:45.380 ,1,1,0.,24.0,0.,24.0
1979-03-02 18:08:09.380 ,2,1,0.,24.0,0.,24.0
1979-03-02 18:08:33.380 ,3,1,0.,24.0,0.,24.0
1979-03-02 18:08:57.380 ,4,1,0.,24.0,0.,24.0
1979-03-02 18:09:21.380 ,5,1,0.,24.0,0.,24.0
1979-03-02 18:09:45.380 ,6,1,0.,24.0,0.,24.0
1979-03-02 18:10:09.380 ,7,1,0.,24.0,0.,24.0
1979-03-02 18:10:33.380 ,7,1,0.,24.0,0.,24.0
1979-03-02 18:10:57.380 ,6,1,0.,24.0,0.,24.0
1979-03-02 18:11:21.380 ,5,1,0.,24.0,0.,24.0
1979-03-02 18:11:45.380 ,4,1,0.,24.0,0.,24.0
1979-03-02 18:12:09.380 ,3,1,0.,24.0,0.,24.0
1979-03-02 18:12:33.380 ,2,1,0.,24.0,0.,24.0
1979-03-02 18:12:57.380 ,1,1,0.,24.0,0.,24.0
1979-03-02 18:13:21.380 ,0,1,0.,24.0,0.,24.0
1979-03-02 18:13:45.380 ,0,1,0.,24.0,0.,24.0
1979-03-02 18:14:09.380 ,1,1,0.,24.0,0.,24.0
1979-03-02 18:14:33.380 ,2,1,0.,24.0,0.,24.0
1979-03-02 18:14:57.380 ,3,1,0.,24.0,0.,24.0
1979-03-02 18:15:21.380 ,4,1,0.,24.0,0.,24.0
1979-03-02 18:15:45.380 ,5,1,0.,24.0,0.,24.0
1979-03-02 18:16:09.380 ,6,1,0.,24.0,0.,24.0
1979-03-02 18:16:33.380 ,7,1,0.,24.0,0.,24.0
1979-03-02 18:16:57.380 ,7,1,0.,24.0,0.,24.0
1979-03-02 18:17:21.380 ,6,1,0.,24.0,0.,24.0
1979-03-02 18:17:45.380 ,5,1,0.,24.0,0.,24.0
1979-03-02 18:18:09.380 ,4,1,0.,24.0,0.,24.0
1979-03-02 18:18:33.380 ,3,1,0.,24.0,0.,24.0
1979-03-02 18:18:57.380 ,2,1,0.,24.0,0.,24.0
1979-03-02 18:19:21.380 ,1,1,0.,24.0,0.,24.0
1979-03-02 18:19:45.380 ,0,1,0.,24.0,0.,24.0
1979-03-02 18:20:09.380 ,0,1,0.,24.0,0.,24.0
1979-03-02 18:20:33.380 ,1,1,0.,24.0,0.,24.0
1979-03-02 18:20:57.380 ,2,1,0.,24.0,0.,24.0
1979-03-02 18:21:21.380 ,3,1,0.,24.0,0.,24.0
1979-03-02 18:21:45.380 ,4,1,0.,24.0,0.,24.0
1979-03-02 18:22:09.380 ,5,1,0.,24.0,0.,24.0
1979-03-02 18:22:33.380 ,6,1,0.,24.0,0.,24.0
1979-03-02 18:22:57.380 ,7,1,0.,24.0,0.,24.0
1979-03-02 18:23:21.380 ,7,1,0.,24.0,0.,24.0
1979-03-02 18:23:45.380 ,6,1,0.,24.0,0.,24.0
1979-03-02 18:24:09.380 ,5,1,0.,24.0,0.,24.0
1979-03-02 18:24:33.380 ,4,1,0.,24.0,0.,24.0
1979-03-02 18:24:57.380 ,3,1,0.,24.0,0.,24.0
1979-03-02 18:25:21.380 ,2,1,0.,24.0,0.,24.0
1979-03-02 18:25:45.380 ,1,1,0.,24.0,0.,24.0
1979-03-02 18:26:09.380 ,0,1,0.,24.0,0.,24.0
1979-03-02 18:26:33.380 ,0,1,0.,24.0,0.,24.0
1979-03-02 18:26:57.380 ,1,1,0.,24.0,0.,24.0
1979-03-02 18:27:21.380 ,2,1,0.,24.0,0.,24.0
1979-03-02 18:27:45.380 ,3,1,0.,24.0,0.,24.0
1979-03-02 18:28:09.380 ,4,1,0.,24.0,0.,24.0
1979-03-02 18:28:33.380 ,5,1,0.,24.0,0.,24.0
1979-03-02 18:28:57.380 ,6,1,0.,24.0,0.,24.0
1979-03-02 18:29:21.380 ,7,1,0.,24.0,0.,24.0
1979-03-02 18:29:45.380 ,7,1,0.,24.0,0.,24.0
1979-03-02 18:30:09.380 ,6,1,0.,24.0,0.,24.0
1979-03-02 18:30:33.380 ,5,1,0.,24.0,0.,24.0
1979-03-02 18:30:57.380 ,4,1,0.,24.0,0.,24.0
1979-03-02 18:31:21.380 ,3,1,0.,24.0,0.,24.0
1979-03-02 18:31:45.380 ,2,1,0.,24.0,0.,24.0
1979-03-02 18:32:09.380 ,1,1,0.,24.0,0.,24.0
1979-03-02 18:32:33.380 ,0,1,0.,24.0,0.,24.0
1979-03-02 18:32:57.380 ,0,1,0.,24.0,0.,24.0
1979-03-02 18:33:21.380 ,1,1,0.,24.0,0.,24.0
1979-03-02 18:33:45.380 ,2,1,0.,24.0,0.,24.0
1979-03-02 18:34:09.380 ,3,1,0.,24.0,0.,24.0
1979-03-02 18:34:33.380 ,4,1,0.,24.0,0.,24.0
1979-03-02 18:34:57.380 ,5,1,0.,24.0,0.,24.0
1979-03-02 18:35:21.380 ,6,1,0.,24.0,0.,24.0
1979-03-02 18:35:45.380 ,7,1,0.,24.0,0.,24.0
1979-03-02 18:36:09.380 ,7,1,0.,24.0,0.,24.0
1979-03-02 18:36:33.380 ,6,1,0.,24.0,0.,24.0
1979-03-02 18:36:57.380 ,5,1,0.,24.0,0.,24.0
1979-03-02 18:37:21.380 ,4,1,0.,24.0,0.,24.0
1979-03-02 18:37:45.380 ,3,1,0.,24.0,0.,24.0
1979-03-02 18:38:09.380 ,2,1,0.,24.0,0.,24.0
1979-03-02 18:38:33.380 ,1,1,0.,24.0,0.,24.0
1979-03-02 18:38:57.380 ,0,1,0.,24.0,0.,24.0
1979-03-02 18:39:21.380 ,0,1,0.,24.0,0.,24.0
1979-03-02 18:39:45.380 ,1,1,0.,24.0,0.,24.0
1979-03-02 18:40:09.380 ,2,1,0.,24.0,0.,24.0
1979-03-02 18:40:33.380 ,3,1,0.,24.0,0.,24.0
1979-03-02 18:40:57.380 ,4,1,0.,24.0,0.,24.0
1979-03-02 18:41:21.380 ,5,1,0.,24.0,0.,24.0
1979-03-02 18:41:45.380 ,6,1,0.,24.0,0.,24.0
1979-03-02 18:42:09.380 ,7,1,0.,24.0,0.,24.0
1979-03-02 18:42:33.380 ,7,1,0.,24.0,0.,24.0
1979-03-02 18:42:57.380 ,6,1,0.,24.0,0.,24.0
1979-03-02 18:43:21.380 ,5,1,0.,24.0,0.,24.0
1979-03-02 18:43:45.380 ,4,1,0.,24.0,0.,24.0
1979-03-02 18:44:09.380 ,3,1,0.,24.0,0.,24.0
1979-03-02 18:44:33.380 ,2,1,0.,24.0,0.,24.0
1979-03-02 18:44:57.380 ,1,1,0.,24.0,0.,24.0
1979-03-02 18:45:21.380 ,0,1,0.,24.0,0.,24.0
1979-03-02 18:45:45.380 ,0,1,0.,24.0,0.,24.0
1979-03-02 18:46:09.380 ,1,1,0.,24.0,0.,24.0
1979-03-02 18:46:33.380 ,2,1,0.,24.0,0.,24.0
1979-03-02 18:46:57.380 ,3,1,0.,24.0,0.,24.0
1979-03-02 18:47:21.380 ,4,1,0.,24.0,0.,24.0
1979-03-02 18:47:45.380 ,5,1,0.,24.0,0.,24.0
1979-03-02 18:48:09.380 ,6,1,0.,24.0,0.,24.0
1979-03-02 18:48:33.380 ,7,1,0.,24.0,0.,24.0
1979-03-02 18:48:57.380 ,7,1,0.,24.0,0.,24.0
1979-03-02 18:49:21.380 ,6,1,0.,24.0,0.,24.0
1979-03-02 18:49:45.380 ,5,1,0.,24.0,0.,24.0
1979-03-02 18:50:09.380 ,4,1,0.,24.0,0.,24.0
1979-03-02 18:50:33.380 ,3,1,0.,24.0,0.,24.0
1979-03-02 18:50:57.380 ,2,1,0.,24.0,0.,24.0
1979-03-02 18:51:21.380 ,1,1,0.,24.0,0.,24.0
1979-03-02 18:51:45.380 ,0,1,0.,24.0,0.,24.0
1979-03-02 18:52:09.380 ,0,1,0.,24.0,0.,24.0
1979-03-02 18:52:33.380 ,1,1,0.,24.0,0.,24.0
1979-03-02 18:52:57.380 ,2,1,0.,24.0,0.,24.0
1979-03-02 18:53:21.380 ,3,1,0.,24.0,0.,24.0
1979-03-02 18:53:45.380 ,4,1,0.,24.0,0.,24.0
1979-03-02 18:54:09.380 ,5,1,0.,24.0,0.,24.0
1979-03-02 18:54:33.380 ,6,1,0.,24.0,0.,24.0
1979-03-02 18:54:57.380 ,7,1,0.,24.0,0.,24.0
1979-03-02 18:55:21.380 ,7,1,0.,24.0,0.,24.0
1979-03-02 18:55:45.380 ,6,1,0.,24.0,0.,24.0
1979-03-02 18:56:09.380 ,5,1,0.,24.0,0.,24.0
1979-03-02 18:56:33.380 ,4,1,0.,24.0,0.,24.0
1979-03-02 18:56:57.380 ,3,1,0.,24.0,0.,24.0
1979-03-02 18:57:21.380 ,2,1,0.,24.0,0.,24.0
1979-03-02 18:57:45.380 ,1,1,0.,24.0,0.,24.0
1979-03-02 18:58:09.380 ,0,1,0.,24.0,0.,24.0
1979-03-02 18:58:33.380 ,0,1,0.,24.0,0.,24.0
1979-03-02 18:58:57.380 ,1,1,0.,24.0,0.,24.0
1979-03-02 18:59:21.380 ,2,1,0.,24.0,0.,24.0
1979-03-02 18:59:45.380 ,3,1,0.,24.0,0.,24.0
1979-03-02 19:00:09.380 ,4,1,0.,24.0,0.,24.0
1979-03-02 19:00:33.380 ,5,1,0.,24.0,0.,24.0
1979-03-02 19:00:57.380 ,6,1,0.,24.0,0.,24.0
1979-03-02 19:01:21.380 ,7,1,0.,24.0,0.,24.0
1979-03-02 19:01:45.380 ,7,1,0.,24.0,0.,24.0
1979-03-02 19:02:09.380 ,6,1,0.,24.0,0.,24.0
1979-03-02 19:02:33.380 ,5,1,0.,24.0,0.,24.0
1979-03-02 19:02:57.380 ,4,1,0.,24.0,0.,24.0
1979-03-02 19:03:21.380 ,3,1,0.,24.0,0.,24.0
1979-03-02 19:03:45.380 ,2,1,0.,24.0,0.,24.0
1979-03-02 19:04:09.380 ,1,1,0.,24.0,0.,24.0
1979-03-02 19:04:33.380 ,0,1,0.,24.0,0.,24.0
1979-03-02 19:04:57.380 ,0,1,0.,24.0,0.,24.0
1979-03-02 19:05:21.380 ,1,1,0.,24.0,0.,24.0
1979-03-02 19:05:45.380 ,2,1,0.,24.0,0.,24.0
1979-03-02 19:06:09.380 ,3,1,0.,24.0,0.,24.0
1979-03-02 19:06:33.380 ,4,1,0.,24.0,0.,24.0
1979-03-02 19:06:57.380 ,5,1,0.,24.0,0.,24.0
1979-03-02 19:07:21.380 ,6,1,0.,24.0,0.,24.0
1979-03-02 19:07:45.380 ,7,1,0.,24.0,0.,24.0
1979-03-02 19:08:09.380 ,7,1,0.,24.0,0.,24.0
1979-03-02 19:08:33.380 ,6,1,0.,24.0,0.,24.0
1979-03-02 19:08:57.380 ,5,1,0.,24.0,0.,24.0
1979-03-02 19:09:21.380 ,4,1,0.,24.0,0.,24.0
1979-03-02 19:09:45.380 ,3,1,0.,24.0,0.,24.0
1979-03-02 19:10:09.380 ,2,1,0.,24.0,0.,24.0
1979-03-02 19:10:33.380 ,1,1,0.,24.0,0.,24.0
1979-03-02 19:10:57.380 ,0,1,0.,24.0,0.,24.0
1979-03-02 19:11:21.380 ,0,1,0.,24.0,0.,24.0
1979-03-02 19:11:45.380 ,1,1,0.,24.0,0.,24.0
1979-03-02 19:12:09.380 ,2,1,0.,24.0,0.,24.0
1979-03-02 19:12:33.380 ,3,1,0.,24.0,0.,24.0
1979-03-02 19:12:57.380 ,4,1,0.,24.0,0.,24.0
1979-03-02 19:13:21.380 ,5,1,0.,24.0,0.,24.0
1979-03-02 19:13:45.380 ,6,1,0.,24.0,0.,24.0
1979-03-02 19:14:09.380 ,7,1,0.,24.0,0.,24.0
1979-03-02 19:14:33.380 ,7,1,0.,24.0,0.,24.0
1979-03-02 19:14:57.380 ,6,1,0.,24.0,0.,24.0
1979-03-02 19:15:21.380 ,5,1,0.,24.0,0.,24.0
1979-03-02 19:15:45.380 ,4,1,0.,24.0,0.,24.0
1979-03-02 19:16:09.380 ,3,1,0.,24.0,0.,24.0
1979-03-02 19:16:33.380 ,2,1,0.,24.0,0.,24.0
1979-03-02 19:16:57.380 ,1,1,0.,24.0,0.,24.0
1979-03-02 19:17:21.380 ,0,1,0.,24.0,0.,24.0
1979-03-02 19:17:45.380 ,0,1,0.,24.0,0.,24.0
1979-03-02 19:18:09.380 ,1,1,0.,24.0,0.,24.0
1979-03-02 19:18:33.380 ,2,1,0.,24.0,0.,24.0
1979-03-02 19:18:57.380 ,3,1,0.,24.0,0.,24.0
1979-03-02 19:19:21.380 ,4,1,0.,24.0,0.,24.0
1979-03-02 19:19:45.380 ,5,1,0.,24.0,0.,24.0
1979-03-02 19:20:09.380 ,6,1,0.,24.0,0.,24.0
1979-03-02 19:20:33.380 ,7,1,0.,24.0,0.,24.0
1979-03-02 19:20:57.380 ,7,1,0.,24.0,0.,24.0
1979-03-02 19:21:21.380 ,6,1,0.,24.0,0.,24.0
1979-03-02 19:21:45.380 ,5,1,0.,24.0,0.,24.0
1979-03-02 19:22:09.380 ,4,1,0.,24.0,0.,24.0
1979-03-02 19:22:33.380 ,3,1,0.,24.0,0.,24.0
1979-03-02 19:22:57.380 ,2,1,0.,24.0,0.,24.0
1979-03-02 19:23:21.380 ,0,0,0.,24.0,0.,24.0
1979-03-02 19:23:45.380 ,0,1,0.,24.0,0.,24.0
1979-03-02 19:24:09.380 ,0,1,0.,24.0,0.,24.0
1979-03-02 19:24:33.380 ,1,1,0.,24.0,0.,24.0
1979-03-02 19:24:57.380 ,2,1,0.,24.0,0.,24.0
1979-03-02 19:25:21.380 ,3,1,0.,24.0,0.,24.0
1979-03-02 19:25:45.380 ,4,1,0.,24.0,0.,24.0
1979-03-02 19:26:09.380 ,5,1,0.,24.0,0.,24.0
1979-03-02 19:26:33.380 ,6,1,0.,24.0,0.,24.0
1979-03-02 19:26:57.380 ,7,1,0.,24.0,0.,24.0
1979-03-02 19:27:21.380 ,7,1,0.,24.0,0.,24.0
1979-03-02 19:27:45.380 ,6,1,0.,24.0,0.,24.0
1979-03-02 19:28:09.380 ,5,1,0.,24.0,0.,24.0
1979-03-02 19:28:33.380 ,4,1,0.,24.0,0.,24.0
1979-03-02 19:28:57.380 ,3,1,0.,24.0,0.,24.0
1979-03-02 19:29:21.380 ,2,1,0.,24.0,0.,24.0
1979-03-02 19:29:45.380 ,1,1,0.,24.0,0.,24.0
1979-03-02 19:30:09.380 ,0,1,0.,24.0,0.,24.0
1979-03-02 19:30:33.380 ,0,1,0.,24.0,0.,24.0
1979-03-02 19:30:57.380 ,1,1,0.,24.0,0.,24.0
1979-03-02 19:31:21.380 ,2,1,0.,24.0,0.,24.0
1979-03-02 19:31:45.380 ,3,1,0.,24.0,0.,24.0
1979-03-02 19:32:09.380 ,4,1,0.,24.0,0.,24.0
1979-03-02 19:32:33.380 ,5,1,0.,24.0,0.,24.0
1979-03-02 19:32:57.380 ,6,1,0.,24.0,0.,24.0
1979-03-02 19:33:21.380 ,7,1,0.,24.0,0.,24.0
1979-03-02 19:33:45.380 ,7,1,0.,24.0,0.,24.0
1979-03-02 19:34:09.380 ,6,1,0.,24.0,0.,24.0
1979-03-02 19:34:33.380 ,5,1,0.,24.0,0.,24.0
1979-03-02 19:34:57.380 ,4,1,0.,24.0,0.,24.0
1979-03-02 19:35:21.380 ,3,1,0.,24.0,0.,24.0
1979-03-02 19:35:45.380 ,2,1,0.,24.0,0.,24.0
1979-03-02 19:36:09.380 ,1,1,0.,24.0,0.,24.0
1979-03-02 19:36:33.380 ,0,1,0.,24.0,0.,24.0
1979-03-02 19:36:57.380 ,0,1,0.,24.0,0.,24.0
1979-03-02 19:37:21.380 ,1,1,0.,24.0,0.,24.0
1979-03-02 19:37:45.380 ,2,1,0.,24.0,0.,24.0
1979-03-02 19:38:09.380 ,3,1,0.,24.0,0.,24.0
1979-03-02 19:38:33.380 ,4,1,0.,24.0,0.,24.0
1979-03-02 19:38:57.380 ,5,1,0.,24.0,0.,24.0
1979-03-02 19:39:21.380 ,6,1,0.,24.0,0.,24.0
1979-03-02 19:39:45.380 ,7,1,0.,24.0,0.,24.0
1979-03-02 19:40:09.380 ,7,1,0.,24.0,0.,24.0
1979-03-02 19:40:33.380 ,6,1,0.,24.0,0.,24.0
1979-03-02 19:40:57.380 ,5,1,0.,24.0,0.,24.0
1979-03-02 19:41:21.380 ,4,1,0.,24.0,0.,24.0
1979-03-02 19:41:45.380 ,3,1,0.,24.0,0.,24.0
1979-03-02 19:42:09.380 ,2,1,0.,24.0,0.,24.0
1979-03-02 19:42:33.380 ,1,1,0.,24.0,0.,24.0
1979-03-02 19:42:57.380 ,0,1,0.,24.0,0.,24.0
1979-03-02 19:43:21.380 ,0,1,0.,24.0,0.,24.0
1979-03-02 19:43:45.380 ,1,1,0.,24.0,0.,24.0
1979-03-02 19:44:09.380 ,2,1,0.,24.0,0.,24.0
1979-03-02 19:44:33.380 ,3,1,0.,24.0,0.,24.0
1979-03-02 19:44:57.380 ,4,1,0.,24.0,0.,24.0
1979-03-02 19:45:21.380 ,5,1,0.,24.0,0.,24.0
1979-03-02 19:45:45.380 ,6,1,0.,24.0,0.,24.0
1979-03-02 19:46:09.380 ,7,1,0.,24.0,0.,24.0
1979-03-02 19:46:33.380 ,7,1,0.,24.0,0.,24.0
1979-03-02 19:46:57.380 ,6,1,0.,24.0,0.,24.0
1979-03-02 19:47:21.380 ,5,1,0.,24.0,0.,24.0
1979-03-02 19:47:45.380 ,4,1,0.,24.0,0.,24.0
1979-03-02 19:48:09.380 ,3,1,0.,24.0,0.,24.0
1979-03-02 19:48:33.380 ,2,1,0.,24.0,0.,24.0
1979-03-02 19:48:57.380 ,1,1,0.,24.0,0.,24.0
1979-03-02 19:49:21.380 ,0,1,0.,24.0,0.,24.0
1979-03-02 19:49:45.380 ,0,1,0.,24.0,0.,24.0
1979-03-02 19:50:09.380 ,1,1,0.,24.0,0.,24.0
1979-03-02 19:50:33.380 ,2,1,0.,24.0,0.,24.0
1979-03-02 19:50:57.380 ,3,1,0.,24.0,0.,24.0
1979-03-02 19:51:21.380 ,4,1,0.,24.0,0.,24.0
1979-03-02 19:51:45.380 ,5,1,0.,24.0,0.,24.0
1979-03-02 19:52:09.380 ,6,1,0.,24.0,0.,24.0
1979-03-02 19:52:33.380 ,7,1,0.,24.0,0.,24.0
1979-03-02 19:52:57.380 ,7,1,0.,24.0,0.,24.0
1979-03-02 19:53:21.380 ,6,1,0.,24.0,0.,24.0
1979-03-02 19:53:45.380 ,5,1,0.,24.0,0.,24.0
1979-03-02 19:54:09.380 ,4,1,0.,24.0,0.,24.0
1979-03-02 19:54:33.380 ,3,1,0.,24.0,0.,24.0
1979-03-02 19:54:57.380 ,2,1,0.,24.0,0.,24.0
1979-03-02 19:55:21.380 ,1,1,0.,24.0,0.,24.0
1979-03-02 19:55:45.380 ,0,1,0.,24.0,0.,24.0
1979-03-02 19:56:09.380 ,0,1,0.,24.0,0.,24.0
1979-03-02 19:56:33.380 ,1,1,0.,24.0,0.,24.0
1979-03-02 19:56:57.380 ,2,1,0.,24.0,0.,24.0
1979-03-02 19:57:21.380 ,3,1,0.,24.0,0.,24.0
1979-03-02 19:57:45.380 ,4,1,0.,24.0,0.,24.0
1979-03-02 19:58:09.380 ,5,1,0.,24.0,0.,24.0
1979-03-02 19:58:33.380 ,6,1,0.,24.0,0.,24.0
1979-03-02 19:58:57.380 ,7,1,0.,24.0,0.,24.0
1979-03-02 19:59:21.380 ,7,1,0.,24.0,0.,24.0
1979-03-02 19:59:45.380 ,6,1,0.,24.0,0.,24.0
1979-03-02 20:00:09.380 ,5,1,0.,24.0,0.,24.0
1979-03-02 20:00:33.380 ,4,1,0.,24.0,0.,24.0
1979-03-02 20:00:57.380 ,3,1,0.,24.0,0.,24.0
1979-03-02 20:01:21.380 ,2,1,0.,24.0,0.,24.0
1979-03-02 20:01:45.380 ,1,1,0.,24.0,0.,24.0
1979-03-02 20:02:09.380 ,0,1,0.,24.0,0.,24.0
1979-03-02 20:02:33.380 ,0,1,0.,24.0,0.,24.0
1979-03-02 20:02:57.380 ,1,1,0.,24.0,0.,24.0
1979-03-02 20:03:21.380 ,2,1,0.,24.0,0.,24.0
1979-03-02 20:03:45.380 ,3,1,0.,24.0,0.,24.0
1979-03-02 20:04:09.380 ,4,1,0.,24.0,0.,24.0
1979-03-02 20:04:33.380 ,5,1,0.,24.0,0.,24.0
1979-03-02 20:04:57.380 ,6,1,0.,24.0,0.,24.0
1979-03-02 20:05:21.380 ,7,1,0.,24.0,0.,24.0
1979-03-02 20:05:45.380 ,7,1,0.,24.0,0.,24.0
1979-03-02 20:06:09.380 ,6,1,0.,24.0,0.,24.0
1979-03-02 20:06:33.380 ,5,1,0.,24.0,0.,24.0
1979-03-02 20:06:57.380 ,4,1,0.,24.0,0.,24.0
1979-03-02 20:07:21.380 ,3,1,0.,24.0,0.,24.0
1979-03-02 20:07:45.380 ,2,1,0.,24.0,0.,24.0
1979-03-02 20:08:09.380 ,1,1,0.,24.0,0.,24.0
1979-03-02 20:08:33.380 ,0,1,0.,24.0,0.,24.0
1979-03-02 20:08:57.380 ,0,1,0.,24.0,0.,24.0
1979-03-02 20:09:21.380 ,1,1,0.,24.0,0.,24.0
1979-03-02 20:09:45.380 ,2,1,0.,24.0,0.,24.0
1979-03-02 20:10:09.380 ,0,0,,0,,0
1979-03-02 20:10:33.380 ,0,0,0.,24.0,0.,24.0
1979-03-02 20:10:57.380 ,5,1,0.,24.0,0.,24.0
1979-03-02 20:11:21.380 ,6,1,0.,24.0,0.,24.0
1979-03-02 20:11:45.380 ,7,1,0.,24.0,0.,24.0
1979-03-02 20:12:09.380 ,7,1,0.,24.0,0.,24.0
1979-03-02 20:12:33.380 ,6,1,0.,24.0,0.,24.0
1979-03-02 20:12:57.380 ,5,1,0.,24.0,0.,24.0
1979-03-02 20:13:21.380 ,4,1,0.,24.0,0.,24.0
1979-03-02 20:13:45.380 ,3,1,0.,24.0,0.,24.0
1979-03-02 20:14:09.380 ,2,1,0.,24.0,0.,24.0
1979-03-02 20:14:33.380 ,1,1,0.,24.0,0.,24.0
1979-03-02 20:14:57.380 ,0,1,0.,24.0,0.,24.0
1979-03-02 20:15:21.380 ,0,1,0.,24.0,0.,24.0
1979-03-02 20:15:45.380 ,1,1,0.,24.0,0.,24.0
1979-03-02 20:16:09.380 ,2,1,0.,24.0,0.,24.0
1979-03-02 20:16:33.380 ,3,1,0.,24.0,0.,24.0
1979-03-02 20:16:57.380 ,4,1,0.,24.0,0.,24.0
1979-03-02 20:17:21.380 ,5,1,0.,24.0,0.,24.0
1979-03-02 20:17:45.380 ,6,1,0.,24.0,0.,24.0
1979-03-02 20:18:09.380 ,7,1,0.,24.0,0.,24.0
1979-03-02 20:18:33.380 ,7,1,0.,24.0,0.,24.0
1979-03-02 20:18:57.380 ,6,1,0.,24.0,0.,24.0
1979-03-02 20:19:21.380 ,5,1,0.,24.0,0.,24.0
1979-03-02 20:19:45.380 ,4,1,0.,24.0,0.,24.0
1979-03-02 20:20:09.380 ,3,1,0.,24.0,0.,24.0
1979-03-02 20:20:33.380 ,2,1,0.,24.0,0.,24.0
1979-03-02 20:20:57.380 ,1,1,0.,24.0,0.,24.0
1979-03-02 20:21:21.380 ,0,1,0.,24.0,0.,24.0
1979-03-02 20:21:45.380 ,0,1,0.,24.0,0.,24.0
1979-03-02 20:22:09.380 ,1,1,0.,24.0,0.,24.0
1979-03-02 20:22:33.380 ,2,1,0.,24.0,0.,24.0
1979-03-02 20:22:57.380 ,3,1,0.,24.0,0.,24.0
1979-03-02 20:23:21.380 ,4,1,0.,24.0,0.,24.0
1979-03-02 20:23:45.380 ,5,1,0.,24.0,0.,24.0
1979-03-02 20:24:09.380 ,6,1,0.,24.0,0.,24.0
1979-03-02 20:24:33.380 ,7,1,0.,24.0,0.,24.0
1979-03-02 20:24:57.380 ,7,1,0.,24.0,0.,24.0
1979-03-02 20:25:21.380 ,6,1,0.,24.0,0.,24.0
1979-03-02 20:25:45.380 ,5,1,0.,24.0,0.,24.0
1979-03-02 20:26:09.380 ,4,1,0.,24.0,0.,24.0
1979-03-02 20:26:33.380 ,3,1,0.,24.0,0.,24.0
1979-03-02 20:26:57.380 ,2,1,0.,24.0,0.,24.0
1979-03-02 20:27:21.380 ,1,1,0.,24.0,0.,24.0
1979-03-02 20:27:45.380 ,0,1,0.,24.0,0.,24.0
1979-03-02 20:28:09.380 ,0,1,0.,24.0,0.,24.0
1979-03-02 20:28:33.380 ,1,1,0.,24.0,0.,24.0
1979-03-02 20:28:57.380 ,2,1,0.,24.0,0.,24.0
1979-03-02 20:29:21.380 ,3,1,0.,24.0,0.,24.0
1979-03-02 20:29:45.380 ,4,1,0.,24.0,0.,24.0
1979-03-02 20:30:09.380 ,5,1,0.,24.0,0.,24.0
1979-03-02 20:30:33.380 ,6,1,0.,24.0,0.,24.0
1979-03-02 20:30:57.380 ,7,1,0.,24.0,0.,24.0
1979-03-02 20:31:21.380 ,7,1,0.,24.0,0.,24.0
1979-03-02 20:31:45.380 ,6,1,0.,24.0,0.,24.0
1979-03-02 20:32:09.380 ,5,1,0.,24.0,0.,24.0
1979-03-02 20:32:33.380 ,4,1,0.,24.0,0.,24.0
1979-03-02 20:32:57.380 ,3,1,0.,24.0,0.,24.0
1979-03-02 20:33:21.380 ,2,1,0.,24.0,0.,24.0
1979-03-02 20:33:45.380 ,1,1,0.,24.0,0.,24.0
1979-03-02 20:34:09.380 ,0,1,1.,24.0,0.,24.0
1979-03-02 20:34:33.380 ,0,1,0.,24.0,0.,24.0
1979-03-02 20:34:57.380 ,1,1,0.,24.0,0.,24.0
1979-03-02 20:35:21.380 ,2,1,0.,24.0,0.,24.0
1979-03-02 20:35:45.380 ,3,1,0.,24.0,0.,24.0
1979-03-02 20:36:09.380 ,4,1,0.,24.0,0.,24.0
1979-03-02 20:36:33.380 ,5,1,0.,24.0,0.,24.0
1979-03-02 20:36:57.380 ,6,1,0.,24.0,0.,24.0
1979-03-02 20:37:21.380 ,7,1,0.,24.0,0.,24.0
1979-03-02 20:37:45.380 ,7,1,0.,24.0,0.,24.0
1979-03-02 20:38:09.380 ,6,1,0.,24.0,0.,24.0
1979-03-02 20:38:33.380 ,5,1,0.,24.0,0.,24.0
1979-03-02 20:38:57.380 ,4,1,0.,24.0,0.,24.0
1979-03-02 20:39:21.380 ,3,1,0.,24.0,0.,24.0
1979-03-02 20:39:45.380 ,2,1,0.,24.0,0.,24.0
1979-03-02 20:40:09.380 ,1,1,0.,24.0,0.,24.0
1979-03-02 20:40:33.380 ,0,1,0.,24.0,0.,24.0
1979-03-02 20:40:57.380 ,0,1,0.,24.0,0.,24.0
1979-03-02 20:41:21.380 ,1,1,0.,24.0,0.,24.0
1979-03-02 20:41:45.380 ,2,1,0.,24.0,0.,24.0
1979-03-02 20:42:09.380 ,3,1,0.,24.0,0.,24.0
1979-03-02 20:42:33.380 ,4,1,0.,24.0,0.,24.0
1979-03-02 20:42:57.380 ,5,1,0.,24.0,0.,24.0
1979-03-02 20:43:21.380 ,6,1,0.,24.0,0.,24.0
1979-03-02 20:43:45.380 ,7,1,0.,24.0,0.,24.0
1979-03-02 20:44:09.380 ,7,1,0.,24.0,0.,24.0
1979-03-02 20:44:33.380 ,6,1,0.,24.0,0.,24.0
1979-03-02 20:44:57.380 ,5,1,0.,24.0,0.,24.0
1979-03-02 20:45:21.380 ,4,1,0.,24.0,0.,24.0
1979-03-02 20:45:45.380 ,3,1,0.,24.0,0.,24.0
1979-03-02 20:46:09.380 ,2,1,0.,24.0,0.,24.0
1979-03-02 20:46:33.380 ,1,1,0.,24.0,0.,24.0
1979-03-02 20:46:57.380 ,0,1,0.,24.0,0.,24.0
1979-03-02 20:47:21.380 ,0,1,0.,24.0,0.,24.0
1979-03-02 20:47:45.380 ,1,1,0.,24.0,0.,24.0
1979-03-02 20:48:09.380 ,2,1,0.,24.0,0.,24.0
1979-03-02 20:48:33.380 ,3,1,0.,24.0,0.,24.0
1979-03-02 20:48:57.380 ,4,1,0.,24.0,0.,24.0
1979-03-02 20:49:21.380 ,5,1,0.,24.0,0.,24.0
1979-03-02 20:49:45.380 ,6,1,0.,24.0,0.,24.0
1979-03-02 20:50:09.380 ,7,1,0.,24.0,0.,24.0
1979-03-02 20:50:33.380 ,7,1,0.,24.0,0.,24.0
1979-03-02 20:50:57.380 ,6,1,0.,24.0,0.,24.0
1979-03-02 20:51:21.380 ,5,1,0.,24.0,0.,24.0
1979-03-02 20:51:45.380 ,4,1,0.,24.0,0.,24.0
1979-03-02 20:52:09.380 ,3,1,0.,24.0,0.,24.0
1979-03-02 20:52:33.380 ,2,1,0.,24.0,0.,24.0
1979-03-02 20:52:57.380 ,1,1,0.,24.0,0.,24.0
1979-03-02 20:53:21.380 ,0,1,0.,24.0,0.,24.0
1979-03-02 20:53:45.380 ,0,1,0.,24.0,0.,24.0
1979-03-02 20:54:09.380 ,1,1,0.,24.0,0.,24.0
1979-03-02 20:54:33.380 ,2,1,0.,24.0,0.,24.0
1979-03-02 20:54:57.380 ,3,1,0.,24.0,0.,24.0
1979-03-02 20:55:21.380 ,4,1,0.,24.0,0.,24.0
1979-03-02 20:55:45.380 ,5,1,0.,24.0,0.,24.0
1979-03-02 20:56:09.380 ,6,1,0.,24.0,0.,24.0
1979-03-02 20:56:33.380 ,7,1,0.,24.0,0.,24.0
1979-03-02 20:56:57.380 ,7,1,0.,24.0,0.,24.0
1979-03-02 20:57:21.380 ,6,1,0.,24.0,0.,24.0
1979-03-02 20:57:45.380 ,5,1,0.,24.0,0.,24.0
1979-03-02 20:58:09.380 ,4,1,0.,24.0,0.,24.0
1979-03-02 20:58:33.380 ,3,1,0.,24.0,0.,24.0
1979-03-02 20:58:57.380 ,2,1,0.,24.0,0.,24.0
1979-03-02 20:59:21.380 ,1,1,0.,24.0,0.,24.0
1979-03-02 20:59:45.380 ,0,1,0.,24.0,0.,24.0
1979-03-02 21:00:09.380 ,0,1,0.,24.0,0.,24.0
